La Porte, IN

10:05 AM CST on November 21, 2017 (GMT -0600)
La Porte Municipal

Weather History for KPPO - February, 2014

Change the Weather History Date:

Thursday, February 20, 2014

  Actual Average (KSBN) Record (KSBN)
Temperature  
Mean Temperature 38 °F -  
Max Temperature 47 °F 38 °F 65 °F (1983)
Min Temperature 30 °F 22 °F -12 °F (2015)
Degree Days  
Heating Degree Days 26    
Moisture  
Dew Point 34 °F    
Average Humidity 91    
Maximum Humidity 100    
Minimum Humidity 74    
Precipitation  
Precipitation 0.89 in - - ()
Sea Level Pressure  
Sea Level Pressure 29.61 in    
Wind  
Wind Speed 10 mph (SE)    
Max Wind Speed 32 mph    
Max Gust Speed 45 mph    
Visibility 5 miles    
Events Fog , Rain , Snow , Thunderstorm    
Averages and records for this station are not official NWS values.
T = Trace of Precipitation, MM = Missing Value Source: NWS Daily Summary

Daily Weather History Graph

Daily Weather History Graph

Search for Another Location

Airport or City:

Trip Planner

Search our weather history database for the weather conditions in past years. The results will help you decide how hot, cold, wet, or windy it might be!

Date:

Astronomy

Feb. 20, 2014 Rise Set
Actual Time 6:35 AM CST 5:26 PM CST
Civil Twilight 6:06 AM CST 5:54 PM CST
Nautical Twilight 5:34 AM CST 6:27 PM CST
Astronomical Twilight 5:02 AM CST 6:59 PM CST
Moon 11:25 PM CST (2/20) 9:13 AM CST (2/20)
Length of Visible Light 11h 47m
Length of Day
10h 51m
Waning Gibbous, 70% of the Moon is Illuminated
Feb 20
Waning Gibbous
Feb 22
Last Quarter
Mar 1
New
Mar 8
First Quarter
Mar 16
Full

Hourly Weather History & Observations

Time (CST) Temp. Windchill Dew Point Humidity Pressure Visibility Wind Dir Wind Speed Gust Speed Precip Events Conditions
12:15 AM 31.1 °F 25.4 °F 28.4 °F 90% 29.97 in 7.0 mi East 5.8 mph - N/A   Mostly Cloudy
12:35 AM 31.1 °F 25.4 °F 28.4 °F 90% 29.96 in 7.0 mi East 5.8 mph - N/A   Scattered Clouds
12:55 AM 30.9 °F 24.3 °F 28.2 °F 90% 29.95 in 7.0 mi East 6.9 mph - N/A   Mostly Cloudy
1:15 AM 31.8 °F 27.3 °F 28.9 °F 89% 29.93 in 7.0 mi ESE 4.6 mph - N/A   Mostly Cloudy
1:35 AM 33.1 °F 26.9 °F 29.3 °F 86% 29.92 in 10.0 mi ESE 6.9 mph - N/A   Mostly Cloudy
1:55 AM 32.4 °F 27.9 °F 28.8 °F 87% 29.91 in 10.0 mi SE 4.6 mph - N/A   Scattered Clouds
2:15 AM 32.0 °F 24.8 °F 28.4 °F 87% 29.89 in 10.0 mi ESE 8.1 mph - N/A   Clear
2:35 AM 33.1 °F 25.5 °F 28.9 °F 85% 29.87 in 10.0 mi East 9.2 mph - N/A   Clear
2:55 AM 33.8 °F - 28.4 °F 81% 29.88 in 10.0 mi Calm Calm - N/A   Scattered Clouds
3:15 AM 33.8 °F - 28.4 °F 81% 29.86 in 10.0 mi Calm Calm - N/A Thunderstorm Scattered Clouds
3:35 AM 33.4 °F 26.6 °F 28.4 °F 82% 29.84 in 10.0 mi East 8.1 mph - N/A   Clear
3:55 AM 33.3 °F 26.4 °F 28.4 °F 82% 29.84 in 10.0 mi ESE 8.1 mph - N/A   Scattered Clouds
4:15 AM 33.8 °F 29.6 °F 28.4 °F 81% 29.84 in 10.0 mi SE 4.6 mph - N/A   Scattered Clouds
4:35 AM 34.2 °F 30.0 °F 28.2 °F 79% 29.82 in 10.0 mi SE 4.6 mph - N/A   Mostly Cloudy
4:55 AM 34.3 °F 26.5 °F 28.4 °F 79% 29.79 in 10.0 mi ESE 10.4 mph - N/A Thunderstorm Overcast
5:15 AM 33.8 °F 24.3 °F 29.3 °F 84% 29.76 in 5.0 mi East 13.8 mph 18.4 mph 0.01 in   Overcast
5:35 AM 34.2 °F 24.0 °F 30.2 °F 85% 29.72 in 7.0 mi East 16.1 mph - 0.02 in Thunderstorm Overcast
5:55 AM 34.2 °F 30.0 °F 31.1 °F 89% 29.75 in 5.0 mi North 4.6 mph - 0.04 in Snow , Thunderstorm Light Thunderstorms and Snow
6:15 AM 34.2 °F 29.0 °F 31.6 °F 90% 29.77 in 1.5 mi ENE 5.8 mph - 0.13 in Snow , Thunderstorm Light Thunderstorms and Snow
6:35 AM 33.8 °F 22.8 °F 32.0 °F 93% 29.69 in 2.5 mi East 18.4 mph - 0.22 in Snow , Thunderstorm Light Thunderstorms and Snow
6:55 AM 34.0 °F 26.6 °F 32.9 °F 96% 29.73 in 1.0 mi NNE 9.2 mph - 0.45 in Snow , Thunderstorm Light Thunderstorms and Snow
7:15 AM 34.7 °F 26.9 °F 34.7 °F 100% 29.75 in 0.8 mi East 10.4 mph - 0.18 in Snow , Thunderstorm Light Thunderstorms and Snow
7:35 AM 34.9 °F 24.9 °F 34.9 °F 100% 29.72 in 1.5 mi East 16.1 mph - 0.25 in Snow , Thunderstorm Snow
7:55 AM 34.3 °F 24.2 °F 34.3 °F 100% 29.70 in 2.5 mi East 16.1 mph - 0.28 in Snow Light Snow
8:15 AM 34.3 °F 25.9 °F 34.3 °F 100% 29.71 in 3.0 mi East 11.5 mph - N/A   Light Drizzle
8:35 AM 34.7 °F 25.5 °F 34.7 °F 100% 29.70 in 2.0 mi ESE 13.8 mph - 0.02 in Rain , Thunderstorm Rain
8:55 AM 34.7 °F 26.9 °F 34.7 °F 100% 29.69 in 2.0 mi East 10.4 mph - 0.04 in Rain , Thunderstorm Light Thunderstorms and Rain
9:15 AM 34.7 °F 26.4 °F 34.7 °F 100% 29.69 in 2.0 mi East 11.5 mph - 0.02 in Rain , Thunderstorm Light Thunderstorms and Rain
9:35 AM 34.7 °F 27.5 °F 34.7 °F 100% 29.66 in 2.0 mi ESE 9.2 mph - 0.03 in Rain Light Rain
9:55 AM 35.1 °F 27.9 °F 35.1 °F 100% 29.66 in 2.5 mi ESE 9.2 mph - 0.04 in   Drizzle
10:15 AM 35.1 °F 25.9 °F 35.1 °F 100% 29.63 in 2.5 mi ESE 13.8 mph - N/A Rain Rain
10:35 AM 34.9 °F 25.7 °F 34.9 °F 100% 29.62 in 3.0 mi ESE 13.8 mph - N/A   Light Drizzle
10:55 AM 34.9 °F 26.6 °F 34.9 °F 100% 29.60 in 4.0 mi ESE 11.5 mph - N/A   Overcast
12:15 PM 35.6 °F 29.2 °F 35.6 °F 100% 29.55 in 2.0 mi SE 8.1 mph - N/A   Overcast
12:55 PM 36.0 °F 29.6 °F 36.0 °F 100% 29.53 in 1.5 mi ESE 8.1 mph - N/A   Drizzle
1:15 PM 35.6 °F 28.6 °F 35.6 °F 100% 29.51 in 0.8 mi ESE 9.2 mph - N/A Rain Heavy Rain
1:35 PM 35.6 °F 28.6 °F 35.6 °F 100% 29.50 in 0.8 mi East 9.2 mph - 0.01 in Rain Light Rain
1:55 PM 35.2 °F 28.1 °F 35.2 °F 100% 29.49 in 0.8 mi East 9.2 mph - 0.01 in   Overcast
2:15 PM 35.6 °F 28.0 °F 35.6 °F 100% 29.47 in 0.5 mi East 10.4 mph - N/A Fog Fog
2:35 PM 35.6 °F 28.6 °F 35.6 °F 100% 29.46 in 0.5 mi East 9.2 mph - N/A Fog Fog
5:15 PM 45.1 °F 39.1 °F 45.1 °F 100% 29.33 in 0.2 mi SSE 12.7 mph 18.4 mph N/A   Overcast
5:35 PM 45.7 °F 39.1 °F 45.7 °F 100% 29.34 in 0.2 mi South 15.0 mph 20.7 mph N/A   Overcast
5:55 PM 44.8 °F 39.4 °F 44.8 °F 100% 29.34 in 0.2 mi SSE 10.4 mph 17.3 mph N/A Rain Light Rain
6:15 PM 45.0 °F 40.6 °F 45.0 °F 100% 29.33 in 0.2 mi SSE 8.1 mph - N/A   Drizzle
6:35 PM 45.0 °F 39.7 °F 45.0 °F 100% 29.32 in 0.2 mi SSE 10.4 mph - 0.01 in Rain Rain
6:55 PM 45.9 °F 40.4 °F 45.9 °F 100% 29.31 in 0.5 mi SSE 11.5 mph 17.3 mph 0.02 in Rain Light Rain
7:15 PM 47.3 °F - 47.3 °F 100% 29.32 in 1.5 mi South 10.4 mph 19.6 mph 0.01 in Rain Light Rain
7:35 PM 46.8 °F - 46.8 °F 100% 29.33 in 1.8 mi SSW 16.1 mph 21.9 mph 0.01 in Rain Light Rain
7:55 PM 46.0 °F 37.2 °F 46.0 °F 100% 29.35 in 7.0 mi WSW 26.5 mph 38.0 mph 0.01 in   Mostly Cloudy
8:15 PM 41.4 °F 30.0 °F 41.4 °F 100% 29.38 in 10.0 mi WSW 32.2 mph 44.9 mph N/A   Scattered Clouds
8:35 PM 40.5 °F 29.7 °F 40.5 °F 100% 29.39 in 10.0 mi WSW 26.5 mph 38.0 mph N/A   Scattered Clouds
8:55 PM 39.4 °F 28.1 °F 34.0 °F 81% 29.41 in 10.0 mi WSW 27.6 mph 40.3 mph N/A   Mostly Cloudy
9:15 PM 37.8 °F 26.6 °F 32.7 °F 82% 29.42 in 10.0 mi WSW 24.2 mph 36.8 mph N/A   Overcast
9:35 PM 36.5 °F 24.4 °F 30.6 °F 79% 29.44 in 10.0 mi WSW 26.5 mph 39.1 mph N/A   Overcast
9:55 PM 36.3 °F 24.7 °F 29.8 °F 77% 29.44 in 10.0 mi WSW 24.2 mph 38.0 mph N/A   Overcast
10:15 PM 36.0 °F 23.9 °F 29.3 °F 77% 29.44 in 10.0 mi WSW 25.3 mph 36.8 mph N/A   Overcast
10:35 PM 35.6 °F 24.5 °F 29.3 °F 78% 29.44 in 10.0 mi WSW 20.7 mph 33.4 mph N/A   Overcast
10:55 PM 35.6 °F 24.2 °F 28.9 °F 77% 29.43 in 10.0 mi WSW 21.9 mph 32.2 mph N/A   Overcast
11:15 PM 35.6 °F 25.5 °F 28.4 °F 75% 29.44 in 10.0 mi WSW 17.3 mph 29.9 mph N/A   Overcast
11:35 PM 35.6 °F 24.5 °F 28.4 °F 75% 29.44 in 10.0 mi WSW 20.7 mph 32.2 mph N/A   Overcast
11:55 PM 35.8 °F 24.2 °F 28.2 °F 74% 29.44 in 10.0 mi WSW 23.0 mph 33.4 mph N/A   Overcast